SCP
0 0 0 0 0 0 0 -0 0 0 0 0 0 0 0 0 0 0 0 0 0 0 0 0 0 0 0 0 0 0 0 0 0 0 0 0 0 0 0 0 0 0 0 0
0 0 0 0 0 0 0 -0 0 0 0 0 0 0 0 0 0 0 0 0 0 0 0 0 0 0 0 0 0 0 0 0 0 0 0 0 0 0 0 0 0 0 0 0
0 0 0 0 0 0 0 -0 0 0 0 0 0 0 0 0 0 0 0 0 0 0 0 0 0 0 0 0 0 0 0 0 0 0 0 0 0 0 0 0 0 0 0 0
0 0 0 0 0 0 0 0 0 0 0 0 0 0 0 0 0 0 0 0 0 0 0 0 0 0 0 0 0 0 0 0 0 0 0 0 0 0 0 0 0 0 0 0
0 0 -0 0 0 0 0 0 0 0 0 0 0 0 0 0 0 0 0 0 0 0 0 0 0 0 0 0 0 0 0 0 0 0 0 0 0 0 0 0 0 0 0 0
0 0 -0 0 0 0 0 0 0 0 0 0 0 0 0 0 0 0 0 0 0 0 0 0 0 0 0 0 0 0 0 0 0 0 0 0 0 0 0 0 0 0 0 0
0 0 0 0 0 0 0 0 0 0 0 0 0 0 0 0 0 0 -0 -0 -0 0 0 0 0 0 0 0 0 0 0 0 0 0 0 0 0 0 0 0 0 0 0 0
0 0 0 0 0 0 0 0 0 0 0 0 0 0 0 0 0 0 -0 -0 -0 0 0 0 0 0 0 0 0 0 0 0 0 0 0 0 0 0 0 0 0 0 0 0
0 0 -0 0 0 0 0 0 0 0 0 0 0 0 0 0 0 0 0 0 0 0 0 0 0 0 0 0 0 0 0 0 0 0 0 0 0 0 0 0 0 0 0 0
0 0 -0 -0 0 0 0 0 0 0 0 0 0 0 0 0 0 0 0 0 0 0 0 0 0 0 0 0 0 0 0 0 0 0 0 0 0 0 0 0 0 0 0 0
0 0 -0 -0 -0 0 0 0 0 0 0 0 0 0 0 0 0 0 0 0 0 0 0 0 0 0 0 0 0 0 0 0 0 0 0 0 0 0 0 0 0 0 0 0
0 0 -0 -0 -0 -0 0 0 0 0 0 0 0 0 0 0 0 0 0 0 0 0 0 0 0 0 0 0 0 0 0 0 0 0 0 0 0 0 0 0 0 0 0 0
0 0 0 -0 -0 -0 0 0 0 0 0 0 0 0 0 0 0 0 0 0 0 0 0 0 0 0 0 0 0 0 0 0 0 0 0 0 0 0 0 0 0 0 0 0
0 0 0 -0 -0 -0 0 0 0 0 0 0 0 0 0 0 0 0 0 0 0 0 0 0 0 0 0 0 0 0 0 0 0 0 0 0 0 0 0 0 0 0 0 0
-0 0 0 0 0 0 0 0 0 0 0 0 0 0 0 0 0 0 0 0 0 0 0 0 0 0 0 0 0 0 0 0 0 0 0 0 0 0 0 0 0 0 0 0
-0 -0 -0 0 0 0 0 0 0 0 0 0 0 0 0 0 0 0 0 0 0 0 0 0 0 0 0 0 0 0 0 0 0 0 0 0 0 0 0 0 0 0 0 0
0 0 0 0 0 0 0 0 0 0 0 0 0 0 0 0 0 -0 0 0 0 0 0 0 0 0 0 0 0 0 0 0 0 0 0 0 0 0 0 0 0 0 0 0
0 0 0 0 0 0 0 0 0 0 0 0 0 0 0 0 0 -0 -0 0 0 0 0 0 0 0 0 0 0 0 0 0 0 0 0 0 0 0 0 -0 0 0 0 0
0 0 0 0 0 0 0 0 0 0 0 0 0 0 0 0 0 -0 -0 -0 0 0 0 0 0 0 0 0 0 0 0 0 0 0 0 0 0 0 0 -0 0 0 0 0
0 0 0 0 0 0 0 0 0 0 0 0 0 0 0 0 0 0 0 0 0 0 0 0 0 0 0 0 0 0 0 0 0 0 0 0 0 0 0 0 0 0 0 0
0 0 0 0 0 0 0 0 0 0 -0 0 0 0 0 0 0 0 0 0 0 0 0 0 0 0 0 0 0 0 0 0 0 0 0 0 0 0 0 0 0 0 0 0
0 0 0 0 0 0 0 0 0 -0 -0 0 0 0 0 0 0 0 0 0 0 0 0 0 0 0 0 0 0 0 0 0 0 0 0 0 0 0 0 0 0 0 0 0
0 0 0 0 0 0 0 0 0 0 0 0 0 0 0 0 0 0 0 0 0 0 0 0 0 0 0 0 0 0 0 0 0 0 0 0 0 0 0 0 0 0 0 0
0 0 0 0 0 0 0 -0 -0 0 0 0 0 0 0 0 0 0 0 0 0 0 0 0 0 0 0 0 0 0 0 0 0 0 0 0 0 0 0 0 0 0 0 0
0 0 0 0 0 0 0 0 0 0 0 0 0 0 0 0 0 0 0 0 0 0 0 0 0 0 0 0 0 0 0 0 0 0 0 0 0 0 0 0 0 0 0 0
0 0 0 0 0 0 0 0 0 0 0 0 0 0 0 -0 0 0 0 0 0 0 0 0 0 0 0 0 0 0 0 0 0 0 0 0 0 0 0 0 0 0 0 0
Wind_Speed
2 3 3 6 6 3 3 3 3 4 1 0 3 5 7 3 1 2 2 1 1 2 2 2 3 3 3 3 3 2 2 2 2 1 1 1 1 1 1 1 2 1 0 1
3 3 4 2 3 2 2 2 2 2 1 1 2 5 5 2 2 3 3 3 3 2 2 3 3 3 3 3 2 2 2 2 2 1 0 0 0 0 0 1 1 1 0 0
5 3 2 2 2 2 3 4 4 2 2 1 1 5 3 2 0 0 1 2 1 1 1 2 3 3 3 3 2 2 2 2 2 2 1 1 1 1 1 1 1 2 0 1
3 3 1 2 2 3 4 3 3 2 1 2 0 4 5 2 2 2 1 1 1 1 1 1 2 3 3 3 2 2 3 3 2 2 1 1 0 0 1 1 1 2 1 0
3 1 1 3 3 4 3 1 2 2 2 1 0 2 7 1 3 4 3 2 1 1 1 1 2 2 3 3 3 2 2 3 2 2 1 1 1 1 1 1 1 1 1 0
3 1 1 2 0 2 3 4 4 4 3 2 4 4 7 4 5 4 3 2 2 2 1 2 2 2 2 3 3 3 2 2 2 2 1 1 0 1 1 1 1 1 1 1
3 1 1 1 2 1 3 5 3 4 2 6 2 3 8 4 3 4 4 3 2 2 1 2 2 3 3 3 3 3 2 2 2 1 1 0 1 1 1 1 1 1 1 1
0 3 2 0 2 3 3 5 6 4 5 4 1 6 7 3 2 1 1 1 2 2 1 2 2 2 2 3 3 3 3 3 2 1 1 1 1 1 1 1 1 1 1 1
3 4 1 0 0 4 4 3 3 4 1 2 5 5 7 2 2 1 1 2 2 2 2 2 2 2 2 3 3 2 3 3 2 2 1 1 1 1 1 1 1 1 1 1
4 2 3 2 1 1 2 5 4 3 3 4 5 5 5 4 3 2 2 3 4 3 3 3 3 2 2 2 2 2 2 2 2 2 2 2 1 1 1 1 2 2 2 2
2 2 3 1 2 3 2 2 3 3 3 3 4 6 4 5 4 3 3 3 3 3 3 3 3 2 2 2 2 3 3 3 2 2 2 2 2 1 1 1 2 2 2 2
2 3 2 4 2 2 2 4 5 4 4 3 3 7 2 2 2 2 3 3 3 3 3 3 3 2 3 3 3 3 3 3 3 2 2 2 2 1 1 2 2 2 1 1
4 4 1 4 2 1 1 2 3 3 3 3 4 8 1 1 1 1 2 3 4 4 4 3 2 2 3 3 3 3 4 3 3 2 2 2 2 1 2 2 2 2 1 1
4 3 5 7 5 2 2 2 3 4 4 5 8 9 7 5 4 4 3 3 4 4 4 4 2 2 3 3 3 3 4 3 3 2 2 2 2 2 2 2 2 2 2 1
4 3 3 4 3 2 4 5 5 7 7 8 8 8 10 6 5 4 4 3 4 4 5 4 3 3 3 3 4 4 4 3 3 3 3 3 3 2 2 2 2 2 2 2
2 2 1 2 2 3 5 7 7 8 7 8 8 11 8 4 3 3 4 3 4 4 5 5 3 3 3 4 4 4 4 4 2 2 2 3 3 3 2 2 2 1 2 2
2 3 1 3 2 2 7 7 7 6 6 6 9 10 4 3 4 4 4 4 4 5 5 5 3 3 3 3 3 4 4 3 2 2 2 2 3 3 3 2 2 2 2 2
5 4 2 0 2 5 6 1 5 5 6 6 6 5 4 5 4 4 3 3 4 4 4 4 3 3 3 3 3 3 3 2 2 2 2 2 3 3 3 2 2 2 2 1
3 5 3 2 2 8 6 2 2 3 5 4 6 6 4 2 2 3 2 2 3 4 4 4 3 3 3 3 3 2 3 2 2 2 2 2 2 2 3 3 2 2 1 1
2 3 3 3 3 6 5 1 1 2 5 3 4 5 3 0 1 4 3 2 3 3 3 3 3 2 2 3 2 2 2 3 2 2 2 2 2 2 2 2 2 1 1 1
1 1 2 3 4 8 5 1 2 3 5 2 3 4 3 4 5 4 2 2 2 3 3 2 2 2 2 2 2 2 2 3 3 3 2 2 2 2 2 2 2 2 2 2
5 4 4 4 4 9 1 3 4 5 2 2 2 3 3 3 3 2 2 2 2 3 3 2 2 2 3 2 1 2 2 3 3 2 2 2 2 2 2 2 2 2 2 2
5 6 5 7 7 3 2 4 3 2 3 3 3 3 2 2 3 2 2 1 2 2 2 2 1 2 3 3 2 2 3 3 3 3 3 3 3 2 2 2 2 2 1 1
3 1 2 5 6 4 4 3 3 3 4 4 3 3 3 3 3 2 2 1 1 2 2 2 2 2 3 3 3 2 3 3 3 3 3 3 2 3 3 2 1 1 1 1
4 3 3 6 6 5 4 3 4 4 3 3 3 2 3 3 2 2 2 2 1 1 1 1 1 2 3 3 3 3 3 2 2 2 3 3 3 2 2 2 2 1 1 1
4 5 5 6 4 4 5 4 3 3 3 3 3 2 2 2 2 2 2 1 1 1 1 1 2 2 3 3 3 4 3 2 2 2 2 2 2 2 2 2 2 4 4 5
Wind_Direction
56 83 210 215 205 202 170 183 241 253 255 127 237 270 286 287 247 238 243 241 255 272 304 348 351 357 5 14 18 26 40 20 33 40 35 23 359 6 25 11 14 341 21 126
58 247 240 216 194 193 180 189 236 290 349 159 274 282 284 270 234 216 213 219 232 276 347 3 4 6 6 9 8 12 18 18 15 16 39 231 327 3 17 19 1 323 323 172
187 240 193 167 170 190 218 194 202 231 341 45 357 303 286 310 0 18 215 206 227 233 302 346 359 355 358 359 358 352 354 359 1 6 39 47 51 24 24 8 356 335 329 159
232 267 176 177 213 176 242 214 193 184 131 282 83 288 282 282 313 309 284 266 280 294 323 346 353 355 349 336 347 4 1 359 360 14 35 57 76 260 280 307 336 343 331 174
251 223 158 206 231 179 206 83 131 151 146 328 270 223 280 287 269 266 253 242 265 283 283 305 316 319 334 339 349 358 8 1 358 10 22 30 347 292 319 352 8 352 340 277
247 252 208 214 235 159 131 74 59 56 79 268 224 191 270 241 235 244 241 252 274 285 286 293 316 342 351 355 359 360 13 356 353 9 27 43 343 321 360 353 328 330 352 325
327 303 291 106 89 69 102 97 37 357 350 252 212 201 251 257 249 225 229 250 279 280 287 316 335 343 346 349 351 351 354 343 346 2 9 359 241 240 226 242 261 295 325 304
226 287 261 162 172 176 176 147 162 202 229 274 279 234 254 279 297 274 243 271 307 310 306 307 303 303 318 329 334 336 337 334 337 337 318 324 287 238 234 235 237 239 255 264
178 254 323 188 207 143 154 178 160 132 142 273 263 279 295 300 344 10 359 350 327 315 313 302 296 298 310 313 313 314 325 330 324 312 305 301 281 268 268 265 253 245 252 264
156 243 294 314 75 13 154 144 114 136 177 253 277 262 252 260 263 285 304 306 306 320 322 318 303 299 309 308 314 322 328 319 311 302 291 291 278 276 283 275 264 261 253 253
137 164 309 11 186 197 137 144 142 143 174 185 261 267 237 224 223 232 262 286 293 300 304 303 302 303 316 334 340 336 333 334 328 310 297 296 294 292 296 288 276 270 272 264
148 131 245 258 249 177 173 182 159 170 221 195 220 267 286 227 232 228 263 293 306 301 305 306 308 327 339 340 342 338 335 334 325 315 314 310 313 316 303 293 288 275 272 279
143 126 49 341 341 17 221 216 179 146 136 178 207 262 318 345 320 279 277 304 317 322 328 328 326 332 329 334 338 337 335 332 334 338 339 336 329 316 292 284 288 290 287 293
128 142 179 208 229 201 231 230 184 160 194 222 231 255 284 289 290 296 294 297 304 312 315 311 313 316 322 329 331 331 328 330 332 342 343 335 322 305 289 279 278 279 277 279
131 181 215 247 258 235 238 242 214 205 213 222 246 249 267 265 262 265 271 288 305 311 313 303 310 316 325 330 333 334 329 334 341 342 336 324 320 324 312 295 286 284 283 279
120 158 169 267 250 249 266 261 239 236 235 238 257 267 268 269 266 272 271 275 285 295 300 304 314 317 316 319 323 327 326 329 340 343 335 332 337 338 331 317 310 308 296 285
148 145 164 265 303 342 278 241 218 219 219 208 234 251 279 287 275 266 271 274 273 287 294 299 304 298 298 304 311 313 314 322 343 342 341 342 341 340 333 322 326 315 300 293
152 140 151 249 42 249 250 206 198 217 242 225 240 262 258 259 271 272 260 248 280 297 300 301 304 305 309 318 324 318 325 339 345 342 340 344 343 336 336 342 342 328 316 314
174 155 147 150 232 275 289 258 180 202 269 233 233 257 270 287 305 294 258 247 261 274 288 291 293 298 311 321 324 334 353 356 356 342 336 331 326 329 338 341 335 331 345 343
80 123 141 155 200 247 264 264 186 122 282 256 217 241 247 146 275 273 272 287 291 300 304 307 317 324 326 324 336 359 353 359 349 332 323 325 329 336 337 335 342 353 355 340
98 99 168 189 229 261 262 253 127 171 260 290 224 226 204 215 233 267 290 306 303 310 313 323 330 331 322 331 2 9 358 350 334 337 341 346 348 342 332 351 357 357 3 12
176 171 190 172 218 256 231 136 183 226 280 282 253 227 224 248 270 281 292 308 321 323 325 332 343 333 333 346 12 2 341 334 342 353 358 354 351 341 352 7 354 359 10 16
204 198 194 198 220 255 189 210 235 234 265 270 255 255 233 242 258 275 281 287 306 310 316 328 341 340 344 349 2 351 333 344 357 4 360 353 352 352 358 360 348 353 359 1
248 199 205 254 265 267 263 259 270 260 258 272 267 256 229 237 254 262 270 293 308 312 314 333 356 352 340 341 351 342 337 351 2 357 347 349 356 357 2 357 355 354 343 332
231 184 215 257 275 298 275 253 267 278 280 284 283 252 227 225 246 245 263 274 283 303 316 330 336 334 328 334 341 341 344 352 355 346 344 346 350 348 353 2 10 351 345 320
209 194 201 239 241 239 268 272 263 259 268 268 275 279 262 228 232 237 256 262 266 296 319 333 331 329 328 335 335 337 340 341 339 338 346 343 342 341 345 352 1 14 10 4